Location: Huppendorf
(49.9333°N, 11.1500°E)
Time: 18:01:23
(UTC+00:00)

STARLINK-1022 - Pass Details

Date: 27 February 2020
Orbit: 548 x 551 km, 53.0° (Epoch: 29 March)

Event Time Altitude Azimuth Distance (km) Brightness Sun altitude
Rises 18:53:43 0° 245° (WSW) 2,710 8.0 -20.1°
Reaches altitude 10° 18:55:57 10° 246° (WSW) 1,819 7.0 -20.4°
Maximum altitude 19:00:05 88° 157° (SSE) 555 3.5 -21.1°
Enters shadow 19:00:36 68° 73° (ENE) 596 3.5 -21.1°
